Location: Olsztyn
(53.7767°N, 20.4765°E)
Time: 13:47:58
(UTC+02:00)

Transit 4A - All Passes

Search period start: 19 July 2024 00:00
Search period end: 29 July 2024 00:00
Orbit: 870 x 973 km, 66.8° (Epoch: 19 July)

Date Brightness Start Highest point End Pass type
(mag) Time Alt. Az. Time Alt. Az. Time Alt. Az.
19 Jul - 00:41:00 10° NW 00:47:00 76° NE 00:53:09 10° SE visible
19 Jul - 02:27:50 10° NW 02:32:53 29° WSW 02:38:03 10° S visible
19 Jul - 15:55:34 10° SSE 16:00:07 25° ESE 16:04:44 10° ENE daylight
19 Jul - 17:40:01 10° SW 17:45:50 83° NW 17:51:47 10° NE daylight
19 Jul - 19:27:48 10° W 19:32:59 31° NNW 19:38:15 10° NE daylight
19 Jul - 21:16:26 10° NW 21:21:05 23° N 21:25:48 10° NE daylight
19 Jul - 23:03:40 10° NW 23:09:06 35° NNE 23:14:39 10° E visible
20 Jul - 00:50:03 10° NW 00:56:03 84° SW 01:02:12 10° SE visible
20 Jul - 02:37:17 10° WNW 02:41:38 21° WSW 02:46:04 10° SSW visible
20 Jul - 16:03:46 10° S 16:08:53 34° ESE 16:14:05 10° NE daylight
20 Jul - 17:49:09 10° SW 17:54:55 65° NW 18:00:49 10° NE daylight
20 Jul - 19:37:21 10° WNW 19:42:19 28° NNW 19:47:24 10° NE daylight
20 Jul - 21:25:47 10° NW 21:30:31 24° N 21:35:20 10° ENE daylight
20 Jul - 23:12:42 10° NW 23:18:22 42° NNE 23:24:08 10° ESE visible
21 Jul - 00:59:07 10° NW 01:05:02 65° SW 01:11:06 10° SSE visible
21 Jul - 02:47:05 10° WNW 02:50:19 15° WSW 02:53:36 10° SW visible
21 Jul - 16:12:14 10° S 16:17:44 46° ESE 16:23:18 10° NE daylight
21 Jul - 17:58:24 10° WSW 18:04:03 51° NW 18:09:51 10° NE daylight
21 Jul - 19:46:54 10° WNW 19:51:42 25° NNW 19:56:36 10° NE daylight
21 Jul - 21:35:03 10° NW 21:39:56 26° NNE 21:44:54 10° ENE visible
21 Jul - 23:21:44 10° NW 23:27:34 51° NE 23:33:31 10° ESE visible
22 Jul - 01:08:13 10° NW 01:13:57 48° WSW 01:19:50 10° SSE visible
22 Jul - 14:38:44 10° SE 14:41:27 14° ESE 14:44:11 10° ENE daylight
22 Jul - 16:20:54 10° SSW 16:26:37 62° ESE 16:32:26 10° NE daylight
22 Jul - 18:07:45 10° WSW 18:13:16 42° NNW 18:18:53 10° NE daylight
22 Jul - 19:56:26 10° WNW 20:01:07 24° N 20:05:53 10° NE daylight
22 Jul - 21:44:14 10° NW 21:49:19 28° NNE 21:54:29 10° ENE visible
22 Jul - 23:30:46 10° NW 23:36:43 65° NE 23:42:49 10° SE visible
23 Jul - 01:17:25 10° NW 01:22:48 36° WSW 01:28:20 10° S visible
23 Jul - 14:46:06 10° SSE 14:50:06 19° ESE 14:54:08 10° ENE daylight
23 Jul - 16:29:46 10° SW 16:35:35 82° SE 16:41:31 10° NE daylight
23 Jul - 18:17:12 10° W 18:22:32 35° NNW 18:27:57 10° NE daylight
23 Jul - 20:05:53 10° NW 20:10:33 23° N 20:15:17 10° NE daylight
23 Jul - 21:53:22 10° NW 21:58:39 32° NNE 22:04:03 10° E visible
23 Jul - 23:39:47 10° NW 23:45:48 82° NE 23:51:58 10° SE visible
24 Jul - 01:26:42 10° WNW 01:31:36 26° WSW 01:36:35 10° SSW visible
24 Jul - 14:54:03 10° SSE 14:58:49 27° ESE 15:03:38 10° NE daylight
24 Jul - 16:38:48 10° SW 16:44:37 77° NW 16:50:34 10° NE daylight
24 Jul - 18:26:43 10° W 18:31:50 30° NNW 18:37:04 10° NE daylight
24 Jul - 20:15:18 10° NW 20:19:59 23° N 20:24:44 10° ENE daylight
24 Jul - 22:02:26 10° NW 22:07:57 37° NNE 22:13:34 10° E visible
24 Jul - 23:48:49 10° NW 23:54:50 78° SW 00:00:59 10° SSE visible
25 Jul - 01:36:13 10° WNW 01:40:20 19° WSW 01:44:30 10° SSW visible
25 Jul - 15:02:20 10° S 15:07:36 37° ESE 15:12:56 10° NE daylight
25 Jul - 16:47:57 10° WSW 16:53:43 60° NW 16:59:35 10° NE daylight
25 Jul - 18:36:15 10° WNW 18:41:12 27° NNW 18:46:14 10° NE daylight
25 Jul - 20:24:37 10° NW 20:29:25 24° N 20:34:16 10° ENE daylight
25 Jul - 22:11:28 10° NW 22:17:12 45° NE 22:23:02 10° ESE visible
25 Jul - 23:57:53 10° NW 00:03:47 59° WSW 00:09:50 10° SSE visible
26 Jul - 01:46:12 10° WNW 01:48:59 13° WSW 01:51:47 10° SW visible
26 Jul - 13:31:06 10° ESE 13:31:30 10° E 13:31:54 10° E daylight
26 Jul - 15:10:53 10° SSW 15:16:27 50° ESE 15:22:07 10° NE daylight
26 Jul - 16:57:15 10° WSW 17:02:52 48° NW 17:08:37 10° NE daylight
26 Jul - 18:45:48 10° WNW 18:50:36 25° NNW 18:55:28 10° NE daylight
26 Jul - 20:33:51 10° NW 20:38:48 26° NNE 20:43:50 10° ENE daylight
26 Jul - 22:20:30 10° NW 22:26:23 55° NE 22:32:24 10° ESE visible
27 Jul - 00:07:01 10° NW 00:12:41 44° WSW 00:18:29 10° S visible
27 Jul - 13:36:54 10° SE 13:40:06 15° ESE 13:43:18 10° ENE daylight
27 Jul - 15:19:36 10° SSW 15:25:22 68° SE 15:31:14 10° NE daylight
27 Jul - 17:06:37 10° W 17:12:05 40° NNW 17:17:40 10° NE daylight
27 Jul - 18:55:19 10° WNW 19:00:00 24° N 19:04:46 10° NE daylight
27 Jul - 20:43:01 10° NW 20:48:10 29° NNE 20:53:25 10° E daylight
27 Jul - 22:29:30 10° NW 22:35:31 69° NE 22:41:39 10° SE visible
28 Jul - 00:16:14 10° NW 00:21:31 33° WSW 00:26:55 10° S visible
28 Jul - 13:44:29 10° SSE 13:48:45 22° ESE 13:53:04 10° ENE daylight
28 Jul - 15:28:31 10° SW 15:34:20 89° SE 15:40:17 10° NE daylight
28 Jul - 17:16:06 10° W 17:21:22 33° NNW 17:26:45 10° NE daylight
28 Jul - 19:04:46 10° NW 19:09:26 23° N 19:14:10 10° NE daylight
28 Jul - 20:52:08 10° NW 20:57:30 33° NNE 21:02:59 10° E daylight
28 Jul - 22:38:32 10° NW 22:44:34 88° NE 22:50:46 10° SE visible
